[[{"header":{"parameterUnit":"m.s-1","parameterCategory":1,"la1":30.2991,"la2":30.254,"lo1":-89.0895,"lo2":-89.0444,"dy":0.0017,"dx":0.0017,"nx":28,"ny":28,"refTime":"2024-02-22T09:00:00:Z","depth":0,"parameterNumber":2,"parameterNumberName":"U-component_of_WINDS"},"data":[0,0,0,0,0,0,0,0,0,0,0,0,0,0,0,0,0,0,0,0,0,0,0,0,0,0,0,0,0,0,0,0,0,0,0,0,0,0,0,0,0,0,0,0,0,0,0,0,0,0,0,0,0,0,0,0,0,0,4.3174,4.3174,0,4.3204,4.3204,4.3205,4.3146,4.3144,4.3142,4.314,4.317,4.3173,4.3175,0,0,0,0,0,0,0,0,0,0,0,0,0,4.3065,4.3068,4.3174,4.3174,4.3174,4.3204,4.3204,4.3205,4.3146,4.3144,4.3141,4.3139,4.3169,4.3172,4.3176,0,0,0,0,0,0,0,0,0,0,0,0,0,4.3106,4.3068,4.3174,4.3149,4.3147,4.3204,4.3204,4.3205,4.3147,4.3144,4.3141,4.3138,4.3168,4.3172,4.3176,4.3258,0,0,4.3188,4.319,0,0,0,0,0,0,0,0,4.3104,4.311,4.3152,4.3151,4.3149,4.3168,4.3177,4.3223,4.3147,4.3147,4.314,4.3137,4.3172,4.3175,4.3187,4.326,4.3261,4.3188,4.3191,4.3192,4.3193,0,0,0,0,0,0,0,4.3101,4.3108,4.3186,4.3153,4.3151,4.3136,4.3139,4.3186,4.3175,4.3147,4.3142,4.3147,4.317,4.3184,4.3188,4.3261,4.3188,4.3192,4.3194,4.3196,4.3406,4.3409,0,0,0,0,0,0,4.3101,4.3106,4.3185,4.3187,4.3118,4.3141,4.3143,4.3165,4.3174,4.3173,4.3149,4.3144,4.3178,4.3183,4.3188,4.3288,4.3192,4.3196,4.3198,4.3403,4.3407,4.341,0,0,0,0,0,0,4.3099,4.3109,4.3183,4.3145,4.3154,4.3146,4.317,4.3167,4.318,4.3177,4.3174,4.3165,4.3176,4.3183,4.3242,4.3288,4.3198,4.3201,4.3399,4.3404,4.3409,4.3486,0,0,0,0,0,0,4.3096,4.3108,4.3139,4.3146,4.3156,4.3237,4.3173,4.317,4.3187,4.3181,4.3191,4.3189,4.3175,4.3237,4.3246,4.3292,4.3204,4.3395,4.3401,4.3407,4.3479,4.3493,4.3504,0,0,0,0,0,4.3093,4.3159,4.3141,4.3151,4.3195,4.3239,4.3245,4.3227,4.3191,4.3223,4.3221,4.3189,4.3281,4.3243,4.3253,4.3301,4.3392,4.3399,4.3407,4.3473,4.349,4.3504,0,0,0,0,0,0,4.3156,4.3159,4.314,4.321,4.3225,4.3229,4.3268,4.3244,4.3269,4.3262,4.3238,4.3241,4.3305,4.3308,4.3266,4.3382,4.3331,4.334,4.3378,4.3394,4.3406,4.3404,4.3208,0,0,0,0,0,4.3178,4.3215,4.3215,4.3278,4.3286,4.3276,4.3295,4.328,4.3294,4.33,4.3302,4.3317,4.335,4.3372,4.3401,4.3479,4.3482,4.3517,4.3529,4.354,4.3549,4.3593,4.3609,4.3434,4.3434,4.3434,0,0,4.3225,4.3231,4.3255,4.3291,4.33,4.3339,4.3282,4.3324,4.3353,4.3306,4.3363,4.3366,4.3381,4.3451,4.3482,4.3456,4.3598,4.3549,4.3557,4.3561,4.3602,4.3619,4.3634,4.3439,4.3438,4.3438,0,0,4.3329,4.3337,4.3391,4.3403,4.3419,4.3412,4.3425,4.3434,4.3434,4.3491,4.3457,4.3491,4.3547,4.356,4.3574,4.3687,4.366,4.3697,4.3763,4.3807,4.382,4.3832,4.3875,4.389,4.3706,4.3706,4.3706,0,4.3384,4.3442,4.3421,4.3468,4.3485,4.3446,4.3501,4.3513,4.3538,4.3551,4.3522,4.3593,4.36,4.3674,4.3702,4.3714,4.3729,4.3696,4.382,4.3832,4.3843,4.3883,4.3899,4.3711,4.371,4.371,4.3709,0,4.351,4.3551,4.3592,4.3619,4.3641,4.3692,4.368,4.3705,4.3688,4.3685,4.3745,4.3752,4.3784,4.38,4.3784,4.3873,4.3856,4.3824,4.3772,4.3865,4.3902,4.3917,4.3717,4.3716,4.3714,4.3713,0,0,4.3655,4.3672,4.3687,4.37,4.3716,4.3747,4.3797,4.3829,4.3852,4.387,4.3912,4.3962,4.3933,4.3949,4.3934,4.3972,4.4064,4.3935,4.3935,4.396,4.4165,4.419,4.4208,4.4045,4.4048,4.405,4.4164,0,4.376,4.3846,4.3831,4.3915,4.3953,4.3917,4.3961,4.3976,4.3974,4.4007,4.4005,4.4042,4.3999,4.4009,4.4045,4.4045,4.4105,4.4036,4.4085,4.4087,4.4084,4.4227,4.4254,4.436,4.4178,4.4181,4.4182,0,4.3895,4.3921,4.4009,4.4022,4.4037,4.4077,4.4106,4.4137,4.4154,4.4151,4.417,4.4149,4.4199,4.4146,4.4216,4.417,4.4189,4.4192,4.4196,4.4201,4.4141,4.4238,4.4394,4.4411,4.4205,4.4203,4.4201,0,4.3994,4.4051,4.4112,4.4124,4.4139,4.4168,4.4176,4.419,4.4211,4.4237,4.4251,4.4282,4.4299,4.4324,4.4312,4.4273,4.4385,4.433,4.4384,4.4385,4.441,4.4409,4.4573,4.442,4.442,4.442,4.4419,0,4.4115,4.4171,4.4157,4.4195,4.4257,4.4239,4.4301,4.4304,4.4318,4.4356,4.4326,4.4363,4.4344,4.4379,4.437,4.4431,4.4438,4.4438,4.4435,4.4441,4.4442,4.4454,4.4447,4.4424,4.4423,4.4422,4.4421,0,4.4236,4.4229,4.4294,4.4304,4.4308,4.4354,4.4363,4.4399,4.4396,4.4445,4.4455,4.4451,4.4492,4.4482,4.4525,4.4519,4.4597,4.4583,4.4591,4.4589,4.4645,4.4641,4.4824,4.4848,4.4678,4.468,4.4681,0,4.4314,4.4357,4.4373,4.4397,4.4408,4.4446,4.4468,4.4453,4.4477,4.4501,4.4534,4.4572,4.4602,4.4668,4.4669,4.4703,4.4692,4.4754,4.4696,4.4703,4.4695,4.4693,4.4698,4.4766,4.4767,4.4769,4.477,0,4.4455,4.445,4.4483,4.4516,4.4544,4.4569,4.4591,4.4612,4.4598,4.4627,4.4669,4.4692,4.4738,4.4777,4.4809,4.4817,4.4792,4.4788,4.4803,4.4811,4.4815,4.4816,4.4624,4.4784,4.4783,4.4782,4.4781,4.4781,4.4558,4.4595,4.4613,4.4652,4.4667,4.4689,4.4724,4.4727,4.4762,4.4798,4.4787,4.4835,4.4853,4.4893,4.4906,4.4943,4.492,4.4941,4.4946,4.4952,4.496,4.4808,4.4949,4.4948,4.4948,4.4948,4.4947,0,4.4698,4.4709,4.4745,4.4778,4.4809,4.4783,4.4807,4.4835,4.4878,4.4897,4.4928,4.4977,4.5015,4.502,4.5056,4.5085,4.5075,4.5095,4.5094,4.5097,4.4978,4.4963,4.5103,4.5103,4.5103,4.5103,4.5103,4.5103,4.4775,4.4838,4.4836,4.4906,4.4916,4.4964,4.498,4.5,4.5016,4.5072,4.5104,4.5108,4.5121,4.5159,4.5193,4.5193,4.5209,4.5234,4.5231,4.512,4.5105,4.509,4.5075,4.5237,4.5237,4.5346,4.5347,4.5348]},{"header":{"parameterUnit":"m.s-1","parameterCategory":1,"la1":30.2991,"la2":30.254,"lo1":-89.0895,"lo2":-89.0444,"dy":0.0017,"dx":0.0017,"nx":28,"ny":28,"refTime":"2024-02-22T09:00:00:Z","depth":0,"parameterNumber":3,"parameterNumberName":"V-component_of_WINDS"},"data":[0,0,0,0,0,0,0,0,0,0,0,0,0,0,0,0,0,0,0,0,0,0,0,0,0,0,0,0,0,0,0,0,0,0,0,0,0,0,0,0,0,0,0,0,0,0,0,0,0,0,0,0,0,0,0,0,0,0,-0.2441,-0.2441,0,-0.2393,-0.2393,-0.2392,-0.2399,-0.24,-0.2401,-0.2402,-0.2349,-0.2347,-0.2345,0,0,0,0,0,0,0,0,0,0,0,0,0,-0.2536,-0.2535,-0.2441,-0.2441,-0.244,-0.2393,-0.2393,-0.2392,-0.2399,-0.24,-0.2401,-0.2402,-0.235,-0.2347,-0.2345,0,0,0,0,0,0,0,0,0,0,0,0,0,-0.2492,-0.2534,-0.2441,-0.2438,-0.2437,-0.2394,-0.2393,-0.2392,-0.2399,-0.24,-0.2402,-0.2403,-0.2351,-0.2348,-0.2345,-0.23,0,0,-0.2335,-0.2333,0,0,0,0,0,0,0,0,-0.2495,-0.2489,-0.2439,-0.2438,-0.2437,-0.2404,-0.2407,-0.2361,-0.2399,-0.2413,-0.2402,-0.2403,-0.2366,-0.2362,-0.235,-0.2297,-0.2295,-0.2334,-0.2332,-0.2331,-0.233,0,0,0,0,0,0,0,-0.2498,-0.2491,-0.2422,-0.2438,-0.2437,-0.2438,-0.2433,-0.2398,-0.2383,-0.2412,-0.2413,-0.2407,-0.2366,-0.2353,-0.2349,-0.2294,-0.2334,-0.2332,-0.233,-0.2328,-0.2204,-0.2203,0,0,0,0,0,0,-0.2502,-0.2493,-0.2424,-0.2421,-0.247,-0.2436,-0.243,-0.2413,-0.2384,-0.2381,-0.2406,-0.2408,-0.2358,-0.2353,-0.2347,-0.2293,-0.2331,-0.2328,-0.2326,-0.2205,-0.2204,-0.2202,0,0,0,0,0,0,-0.2504,-0.2496,-0.2426,-0.2457,-0.2448,-0.2433,-0.2414,-0.2412,-0.2399,-0.2379,-0.2376,-0.2396,-0.2359,-0.2352,-0.2312,-0.2292,-0.2327,-0.2324,-0.2207,-0.2205,-0.2203,-0.2186,0,0,0,0,0,0,-0.2507,-0.2497,-0.248,-0.2457,-0.2447,-0.2392,-0.2412,-0.241,-0.2394,-0.2395,-0.2369,-0.2366,-0.2359,-0.2317,-0.2309,-0.2288,-0.2321,-0.2208,-0.2206,-0.2203,-0.2188,-0.2183,-0.2179,0,0,0,0,0,-0.251,-0.2476,-0.2479,-0.2471,-0.2426,-0.2391,-0.2385,-0.2379,-0.2392,-0.2375,-0.2362,-0.2367,-0.2295,-0.2313,-0.2304,-0.2282,-0.221,-0.2207,-0.2204,-0.219,-0.2184,-0.2179,0,0,0,0,0,0,-0.2496,-0.2473,-0.2476,-0.2434,-0.2415,-0.2392,-0.2371,-0.2373,-0.2349,-0.2351,-0.2344,-0.2338,-0.2298,-0.2286,-0.2306,-0.2237,-0.2254,-0.2249,-0.2247,-0.2241,-0.2237,-0.2241,-0.2318,0,0,0,0,0,-0.2488,-0.2463,-0.2444,-0.2408,-0.2399,-0.2386,-0.2371,-0.2368,-0.2347,-0.2339,-0.2324,-0.2302,-0.2276,-0.2258,-0.2232,-0.2186,-0.2181,-0.2167,-0.2162,-0.2159,-0.2155,-0.213,-0.2124,-0.2192,-0.2192,-0.2192,0,0,-0.2471,-0.2456,-0.244,-0.2405,-0.239,-0.2363,-0.2379,-0.235,-0.233,-0.2334,-0.2296,-0.2284,-0.226,-0.2218,-0.2199,-0.2206,-0.2135,-0.2155,-0.2152,-0.215,-0.2127,-0.212,-0.2115,-0.219,-0.219,-0.2191,0,0,-0.2427,-0.2412,-0.2382,-0.2366,-0.2344,-0.2336,-0.2329,-0.2306,-0.2299,-0.2261,-0.2264,-0.224,-0.2193,-0.2176,-0.2162,-0.2112,-0.2115,-0.2104,-0.2081,-0.2057,-0.2052,-0.2047,-0.203,-0.2024,-0.2099,-0.2099,-0.2099,0,-0.2408,-0.2369,-0.2365,-0.2336,-0.2321,-0.2325,-0.2293,-0.2278,-0.2248,-0.2237,-0.2246,-0.2189,-0.2173,-0.2127,-0.2115,-0.2103,-0.2094,-0.2106,-0.2053,-0.2048,-0.2044,-0.2027,-0.2021,-0.2098,-0.2098,-0.2098,-0.2098,0,-0.2347,-0.232,-0.2298,-0.227,-0.2252,-0.2222,-0.2213,-0.2195,-0.2194,-0.2185,-0.2147,-0.2128,-0.2099,-0.2088,-0.2086,-0.2042,-0.2047,-0.2055,-0.2072,-0.2036,-0.2021,-0.2014,-0.2096,-0.2097,-0.2097,-0.2097,0,0,-0.2292,-0.2263,-0.2255,-0.2243,-0.2219,-0.2197,-0.2167,-0.214,-0.2125,-0.2104,-0.2078,-0.2039,-0.2047,-0.203,-0.2026,-0.2006,-0.1969,-0.2016,-0.2016,-0.2008,-0.1919,-0.1914,-0.1907,-0.1971,-0.1969,-0.1968,-0.1922,0,-0.2245,-0.2194,-0.219,-0.2143,-0.2118,-0.2122,-0.2095,-0.2077,-0.2068,-0.2045,-0.2035,-0.2008,-0.202,-0.201,-0.199,-0.1977,-0.1951,-0.1981,-0.1946,-0.1945,-0.1953,-0.1898,-0.1892,-0.1849,-0.1915,-0.1914,-0.1913,0,-0.2184,-0.2163,-0.2114,-0.2094,-0.2084,-0.206,-0.2035,-0.2013,-0.1993,-0.1988,-0.197,-0.197,-0.1938,-0.1957,-0.1913,-0.1934,-0.192,-0.1912,-0.191,-0.1906,-0.1927,-0.1894,-0.1835,-0.1828,-0.1904,-0.1904,-0.1905,0,-0.2149,-0.2108,-0.2074,-0.2063,-0.2039,-0.2023,-0.2012,-0.1993,-0.1977,-0.1955,-0.1944,-0.1918,-0.1904,-0.1884,-0.1876,-0.189,-0.1834,-0.1851,-0.1828,-0.1828,-0.1816,-0.1817,-0.1754,-0.1806,-0.1807,-0.1807,-0.1807,0,-0.2098,-0.2068,-0.2058,-0.2037,-0.2003,-0.1999,-0.1965,-0.1955,-0.1938,-0.1915,-0.1916,-0.1894,-0.1885,-0.1862,-0.1855,-0.1821,-0.1814,-0.1809,-0.1808,-0.1809,-0.181,-0.1799,-0.1802,-0.1805,-0.1805,-0.1806,-0.1806,0,-0.2053,-0.2045,-0.2008,-0.1989,-0.1983,-0.196,-0.1943,-0.1922,-0.1914,-0.1885,-0.1877,-0.1864,-0.1836,-0.1827,-0.1793,-0.1789,-0.1749,-0.175,-0.1756,-0.1756,-0.1734,-0.1736,-0.1662,-0.1653,-0.1711,-0.1711,-0.171,0,-0.2021,-0.1998,-0.1977,-0.1962,-0.1951,-0.1926,-0.1911,-0.1905,-0.1889,-0.1865,-0.1847,-0.182,-0.1798,-0.1753,-0.174,-0.1714,-0.1715,-0.1691,-0.1711,-0.1713,-0.1715,-0.1717,-0.1715,-0.1687,-0.1686,-0.1686,-0.1686,0,-0.1964,-0.1962,-0.194,-0.1917,-0.1899,-0.188,-0.1861,-0.1849,-0.184,-0.1822,-0.1794,-0.1777,-0.1744,-0.1716,-0.169,-0.1678,-0.168,-0.168,-0.1673,-0.1674,-0.1679,-0.1677,-0.1746,-0.1681,-0.1682,-0.1682,-0.1682,-0.1682,-0.1925,-0.1906,-0.1888,-0.1864,-0.185,-0.1833,-0.1813,-0.1803,-0.178,-0.1753,-0.1751,-0.1721,-0.1702,-0.1668,-0.1654,-0.1631,-0.1637,-0.1628,-0.1625,-0.1623,-0.1622,-0.1683,-0.1626,-0.1626,-0.1626,-0.1626,-0.1626,0,-0.187,-0.1859,-0.1837,-0.1812,-0.1792,-0.1798,-0.1778,-0.1761,-0.1735,-0.1718,-0.1697,-0.1665,-0.1639,-0.1625,-0.1599,-0.1583,-0.1583,-0.1576,-0.1577,-0.1575,-0.1617,-0.1625,-0.1576,-0.1576,-0.1576,-0.1576,-0.1576,-0.1576,-0.1838,-0.1806,-0.1801,-0.1762,-0.1751,-0.1723,-0.1711,-0.1696,-0.1682,-0.1647,-0.1626,-0.1617,-0.1601,-0.1574,-0.1551,-0.1547,-0.1538,-0.153,-0.1527,-0.1566,-0.1572,-0.1576,-0.1585,-0.1528,-0.1528,-0.1487,-0.1487,-0.1486]}]]